Change the Weather History Date:

Wednesday, December 12, 2012

  Actual Average Record
Temperature  
Mean Temperature 29 °F -  
Max Temperature 37 °F 37 °F 64 °F (1965)
Min Temperature 21 °F 23 °F -5 °F (1988)
Degree Days  
Heating Degree Days 36    
Moisture  
Dew Point 21 °F    
Average Humidity 70    
Maximum Humidity 93    
Minimum Humidity 48    
Precipitation  
Precipitation 0.00 in - - ()
Sea Level Pressure  
Sea Level Pressure 30.33 in    
Wind  
Wind Speed 5 mph (SW)    
Max Wind Speed 9 mph    
Max Gust Speed -    
Visibility 10 miles    
Events      
Averages and records for this station are not official NWS values.
T = Trace of Precipitation, MM = Missing Value Source: NWS Daily Summary

Daily Weather History Graph

Daily Weather History Graph

Search for Another Location

Airport or City:

Trip Planner

Search our weather history database for the weather conditions in past years. The results will help you decide how hot, cold, wet, or windy it might be!

Date:

Astronomy

Dec. 12, 2012 Rise Set
Actual Time 7:36 AM EST 4:50 PM EST
Civil Twilight 7:05 AM EST 5:21 PM EST
Nautical Twilight 6:30 AM EST 5:56 PM EST
Astronomical Twilight 5:56 AM EST 6:29 PM EST
Moon 6:38 AM EST (12/12) 4:25 PM EST (12/12)
Length of Visible Light 10h 16m
Length of Day
9h 13m
Waning Crescent, 1% of the Moon is Illuminated
Dec 12
Waning Crescent
Dec 13
New
Dec 20
First Quarter
Dec 28
Full
Jan 4
Last Quarter

Hourly Weather History & Observations

Time (EST) Temp. Windchill Dew Point Humidity Pressure Visibility Wind Dir Wind Speed Gust Speed Precip Events Conditions
12:15 AM 30.2 °F 25.4 °F 24.8 °F 80% 30.18 in 10.0 mi West 4.6 mph - N/A   Overcast
12:35 AM 30.2 °F 23.4 °F 24.8 °F 80% 30.18 in 10.0 mi West 6.9 mph - N/A   Mostly Cloudy
12:55 AM 28.4 °F 22.2 °F 24.8 °F 86% 30.19 in 10.0 mi WSW 5.8 mph - N/A   Mostly Cloudy
1:15 AM 28.4 °F 23.3 °F 23.0 °F 80% 30.19 in 10.0 mi SW 4.6 mph - N/A   Scattered Clouds
1:35 AM 28.4 °F 20.4 °F 23.0 °F 80% 30.20 in 10.0 mi WSW 8.1 mph - N/A   Clear
1:55 AM 28.4 °F 21.2 °F 23.0 °F 80% 30.21 in 10.0 mi WSW 6.9 mph - N/A   Mostly Cloudy
2:15 AM 28.4 °F 20.4 °F 23.0 °F 80% 30.22 in 10.0 mi WSW 8.1 mph - N/A   Overcast
2:35 AM 28.4 °F 22.2 °F 23.0 °F 80% 30.22 in 10.0 mi WSW 5.8 mph - N/A   Mostly Cloudy
2:55 AM 26.6 °F 20.0 °F 21.2 °F 80% 30.23 in 10.0 mi WSW 5.8 mph - N/A   Scattered Clouds
3:15 AM 28.4 °F 21.2 °F 23.0 °F 80% 30.24 in 10.0 mi WSW 6.9 mph - N/A   Mostly Cloudy
3:35 AM 26.6 °F 18.2 °F 21.2 °F 80% 30.24 in 10.0 mi West 8.1 mph - N/A   Scattered Clouds
3:55 AM 26.6 °F 19.1 °F 21.2 °F 80% 30.24 in 10.0 mi West 6.9 mph - N/A   Clear
4:15 AM 26.6 °F 20.0 °F 21.2 °F 80% 30.24 in 10.0 mi WSW 5.8 mph - N/A   Clear
4:35 AM 26.6 °F 20.0 °F 21.2 °F 80% 30.25 in 10.0 mi West 5.8 mph - N/A   Clear
4:55 AM 26.6 °F 19.1 °F 19.4 °F 74% 30.26 in 10.0 mi SW 6.9 mph - N/A   Clear
5:15 AM 24.8 °F 17.9 °F 19.4 °F 80% 30.27 in 10.0 mi SW 5.8 mph - N/A   Clear
5:35 AM 24.8 °F 17.9 °F 19.4 °F 80% 30.27 in 10.0 mi SW 5.8 mph - N/A   Clear
5:55 AM 24.8 °F 19.1 °F 19.4 °F 80% 30.28 in 10.0 mi SW 4.6 mph - N/A   Clear
6:15 AM 24.8 °F 19.1 °F 19.4 °F 80% 30.29 in 10.0 mi SW 4.6 mph - N/A   Clear
6:35 AM 24.8 °F 17.9 °F 19.4 °F 80% 30.29 in 10.0 mi SW 5.8 mph - N/A   Clear
6:55 AM 23.0 °F 17.0 °F 19.4 °F 86% 30.31 in 10.0 mi SW 4.6 mph - N/A   Clear
7:15 AM 23.0 °F 15.8 °F 19.4 °F 86% 30.31 in 10.0 mi SW 5.8 mph - N/A   Clear
7:35 AM 21.2 °F 13.6 °F 19.4 °F 93% 30.31 in 9.0 mi SW 5.8 mph - N/A   Clear
8:15 AM 23.0 °F 15.8 °F 19.4 °F 86% 30.32 in 8.0 mi SSW 5.8 mph - N/A   Clear
8:35 AM 24.8 °F 17.9 °F 21.2 °F 86% 30.33 in 7.0 mi SSW 5.8 mph - N/A   Clear
8:55 AM 26.6 °F 19.1 °F 21.2 °F 80% 30.33 in 8.0 mi SSW 6.9 mph - N/A   Clear
9:15 AM 26.6 °F 18.2 °F 21.2 °F 80% 30.34 in 9.0 mi SW 8.1 mph - N/A   Clear
9:35 AM 28.4 °F 20.4 °F 21.2 °F 74% 30.34 in 10.0 mi SSW 8.1 mph - N/A   Clear
9:55 AM 28.4 °F 20.4 °F 21.2 °F 74% 30.36 in 10.0 mi SSW 8.1 mph - N/A   Clear
10:15 AM 30.2 °F 24.3 °F 23.0 °F 75% 30.36 in 10.0 mi SW 5.8 mph - N/A   Clear
10:35 AM 30.2 °F 22.6 °F 23.0 °F 75% 30.37 in 10.0 mi SW 8.1 mph - N/A   Clear
10:55 AM 32.0 °F 24.8 °F 23.0 °F 69% 30.36 in 10.0 mi SSW 8.1 mph - N/A   Clear
11:15 AM 33.8 °F 26.4 °F 23.0 °F 65% 30.36 in 10.0 mi SSW 9.2 mph - N/A   Clear
11:35 AM 33.8 °F 27.7 °F 23.0 °F 65% 30.36 in 10.0 mi SSW 6.9 mph - N/A   Clear
12:15 PM 33.8 °F 28.6 °F 21.2 °F 60% 30.36 in 10.0 mi West 5.8 mph - N/A   Clear
12:35 PM 35.6 °F 29.9 °F 21.2 °F 56% 30.36 in 10.0 mi SW 6.9 mph - N/A   Clear
12:55 PM 37.4 °F 32.1 °F 23.0 °F 56% 30.35 in 10.0 mi SW 6.9 mph - N/A   Clear
1:15 PM 37.4 °F 32.1 °F 21.2 °F 52% 30.35 in 10.0 mi SW 6.9 mph - N/A   Clear
1:35 PM 37.4 °F 32.8 °F 21.2 °F 52% 30.35 in 10.0 mi West 5.8 mph - N/A   Clear
1:55 PM 37.4 °F 30.8 °F 21.2 °F 52% 30.35 in 10.0 mi West 9.2 mph - N/A   Clear
2:15 PM 37.4 °F 32.8 °F 21.2 °F 52% 30.35 in 10.0 mi West 5.8 mph - N/A   Clear
2:35 PM 37.4 °F 34.9 °F 21.2 °F 52% 30.35 in 10.0 mi West 3.5 mph - N/A   Clear
2:55 PM 37.4 °F - 21.2 °F 52% 30.35 in 10.0 mi Calm Calm - N/A   Clear
3:15 PM 37.4 °F - 21.2 °F 52% 30.35 in 10.0 mi Calm Calm - N/A   Clear
3:35 PM 37.4 °F 33.8 °F 19.4 °F 48% 30.35 in 10.0 mi SSW 4.6 mph - N/A   Clear
3:55 PM 37.4 °F - 21.2 °F 52% 30.35 in 10.0 mi Calm Calm - N/A   Clear
4:15 PM 35.6 °F 31.7 °F 21.2 °F 56% 30.36 in 10.0 mi SSW 4.6 mph - N/A   Clear
4:35 PM 35.6 °F 32.8 °F 19.4 °F 52% 30.36 in 10.0 mi SW 3.5 mph - N/A   Clear
4:55 PM 33.8 °F 30.8 °F 19.4 °F 56% 30.36 in 10.0 mi SW 3.5 mph - N/A   Clear
5:15 PM 33.8 °F 30.8 °F 19.4 °F 56% 30.36 in 10.0 mi SSW 3.5 mph - N/A   Clear
5:35 PM 32.0 °F 28.7 °F 19.4 °F 60% 30.36 in 10.0 mi SSW 3.5 mph - N/A   Clear
5:55 PM 32.0 °F 27.5 °F 19.4 °F 60% 30.36 in 10.0 mi SSW 4.6 mph - N/A   Clear
6:15 PM 32.0 °F - 19.4 °F 60% 30.36 in 10.0 mi Calm Calm - N/A   Clear
6:35 PM 32.0 °F - 19.4 °F 60% 30.37 in 10.0 mi Calm Calm - N/A   Clear
6:55 PM 30.2 °F - 19.4 °F 64% 30.37 in 10.0 mi Calm Calm - N/A   Clear
7:15 PM 30.2 °F 25.4 °F 19.4 °F 64% 30.38 in 10.0 mi SSW 4.6 mph - N/A   Clear
7:55 PM 30.2 °F - 19.4 °F 64% 30.38 in 10.0 mi Calm Calm - N/A   Clear
8:15 PM 30.2 °F 26.7 °F 19.4 °F 64% 30.39 in 10.0 mi SSW 3.5 mph - N/A   Clear
8:35 PM 30.2 °F 26.7 °F 19.4 °F 64% 30.39 in 10.0 mi SSW 3.5 mph - N/A   Clear
8:55 PM 30.2 °F 26.7 °F 19.4 °F 64% 30.38 in 10.0 mi SSW 3.5 mph - N/A   Clear
9:15 PM 28.4 °F - 19.4 °F 69% 30.39 in 10.0 mi Calm Calm - N/A   Clear
9:35 PM 26.6 °F - 19.4 °F 74% 30.39 in 10.0 mi Calm Calm - N/A   Clear
9:55 PM 28.4 °F 24.6 °F 19.4 °F 69% 30.39 in 10.0 mi SSW 3.5 mph - N/A   Clear
10:15 PM 28.4 °F 24.6 °F 19.4 °F 69% 30.39 in 10.0 mi SSW 3.5 mph - N/A   Clear
10:35 PM 26.6 °F - 19.4 °F 74% 30.40 in 10.0 mi Calm Calm - N/A   Clear
10:55 PM 26.6 °F 22.6 °F 19.4 °F 74% 30.41 in 10.0 mi SSW 3.5 mph - N/A   Clear
11:15 PM 26.6 °F 22.6 °F 19.4 °F 74% 30.41 in 10.0 mi South 3.5 mph - N/A   Clear
11:35 PM 26.6 °F 22.6 °F 19.4 °F 74% 30.41 in 10.0 mi South 3.5 mph - N/A   Clear
11:55 PM 28.4 °F 24.6 °F 19.4 °F 69% 30.40 in 10.0 mi South 3.5 mph - N/A   Clear